CAPE
0 0 158 89 0 0 12 0 0 0 0 0 0 0 10 5 39 77 27 32 66 0 0 0 14 19 49 37 31 0 0 0 0 0 0 0 0 0 0 0 0 33 20 10 5 1 0 0 0
0 98 102 0 0 3 4 0 0 0 0 0 0 0 0 0 0 115 102 8 6 0 0 0 2 4 29 0 0 0 0 0 0 0 0 0 0 0 0 0 0 0 1 15 8 0 0 0 0
0 0 0 3 5 4 2 0 0 0 0 0 0 0 0 0 22 109 94 15 13 0 1 0 0 0 0 17 0 15 14 0 0 0 0 0 0 0 0 0 0 0 0 10 7 3 0 0 0
0 0 0 6 30 6 0 0 0 0 0 0 0 0 0 0 35 235 90 48 4 4 5 0 0 0 0 0 2 23 35 10 0 0 0 0 0 0 0 0 0 0 0 0 15 10 4 0 0
0 0 0 0 8 0 0 0 0 0 0 0 0 0 0 32 165 131 75 26 6 13 1 0 0 0 0 0 0 0 12 9 0 0 0 0 0 0 0 0 0 0 0 0 0 0 5 3 0
0 0 0 0 8 0 0 0 0 0 0 0 0 0 0 4 127 115 42 9 2 3 0 0 0 0 0 0 0 0 1 0 0 0 0 0 0 0 0 0 0 0 0 0 0 0 0 0 0
0 0 0 1 25 0 0 0 0 0 0 0 0 0 0 23 147 91 39 57 17 5 1 0 0 0 0 0 0 1 1 0 0 0 0 0 0 0 0 0 0 0 0 0 0 0 0 0 0
0 0 0 0 19 0 0 0 0 0 0 0 0 0 0 0 183 109 52 41 75 36 26 19 0 0 0 0 0 0 0 0 0 0 0 0 0 0 0 0 0 0 0 0 0 0 0 0 0
0 0 0 0 12 0 0 0 0 0 0 0 0 0 0 14 183 99 65 56 81 99 80 73 17 0 0 0 0 0 0 0 0 0 0 0 0 0 0 0 0 0 0 0 0 0 0 0 0
0 0 0 0 0 0 0 0 0 0 0 0 0 0 0 15 190 168 110 67 87 121 103 71 50 38 12 9 0 0 0 0 0 0 0 0 0 0 1 0 0 0 0 0 0 0 0 0 0
0 0 0 0 0 0 0 0 0 0 0 0 0 0 0 0 136 186 118 66 75 64 55 50 41 36 0 1 0 0 0 0 0 0 0 0 0 0 0 0 0 0 0 0 0 0 0 0 0
0 0 0 0 0 0 0 0 0 0 0 0 0 0 0 8 79 122 71 29 49 55 72 42 41 32 24 0 0 0 0 0 0 0 0 0 0 0 0 0 0 0 0 0 0 0 0 0 0
0 0 0 0 0 0 0 0 0 0 0 0 0 0 0 18 34 50 25 0 0 3 5 30 0 0 25 21 0 0 0 0 0 0 0 0 0 0 0 0 0 0 0 0 0 0 0 0 0
0 0 0 0 0 0 0 0 0 0 0 0 0 0 0 2 9 14 0 0 0 0 0 24 65 38 5 0 0 0 0 0 0 0 0 0 0 0 0 0 0 0 0 0 0 0 0 0 0
0 0 0 0 0 0 0 0 0 0 0 0 0 0 0 0 0 0 0 0 3 5 0 0 25 71 45 22 1 9 0 0 0 0 0 0 0 0 0 0 0 0 0 0 0 0 0 0 0
0 0 0 0 0 0 0 0 0 0 0 0 0 0 0 0 0 0 0 0 0 0 0 0 10 23 38 24 27 29 60 40 0 0 0 0 0 0 0 0 0 2 2 2 2 3 2 5 9
1 0 0 0 0 0 0 20 0 0 0 0 0 0 0 0 0 0 0 0 0 0 0 0 2 7 10 48 62 63 109 109 96 53 0 0 5 20 18 18 21 28 26 20 14 3 2 6 7
0 0 0 0 0 0 0 0 0 0 0 0 0 0 0 0 0 0 0 0 0 0 0 0 0 0 5 6 0 0 22 40 61 58 57 1 13 21 25 27 24 22 19 13 12 2 0 4 8
0 0 0 0 0 0 0 0 0 0 0 0 0 0 0 0 0 0 0 0 0 0 0 0 0 0 0 0 0 0 0 0 12 13 52 0 0 0 0 0 0 0 0 0 0 0 0 0 0
7 2 0 0 0 0 0 0 0 0 0 0 0 0 0 0 0 0 0 0 0 0 0 0 0 0 0 0 0 0 0 0 0 0 0 0 0 0 0 0 0 0 0 0 0 0 0 1 2
7 6 4 0 0 0 0 0 0 0 0 0 0 0 0 0 0 0 0 0 0 0 0 0 0 0 0 0 0 0 0 0 0 0 0 0 0 0 0 0 0 0 0 0 0 0 1 1 2
0 0 2 1 0 0 0 0 0 0 0 0 0 0 0 0 0 0 0 0 0 0 0 0 0 0 0 0 0 0 0 0 0 0 0 0 0 0 0 0 0 0 0 0 0 6 17 23 13
0 0 0 2 0 0 0 0 0 0 0 0 0 0 0 0 0 0 0 0 0 0 0 0 0 0 0 0 0 0 0 0 0 0 0 0 0 0 0 0 0 0 0 0 0 3 3 9 25
0 0 0 0 0 0 0 0 0 0 0 0 0 0 0 0 0 0 0 0 0 0 0 0 0 0 0 0 0 0 0 0 0 0 0 0 0 0 0 0 0 0 0 0 0 0 0 0 0
0 0 0 0 0 0 0 0 0 0 0 0 0 0 0 0 0 0 0 0 0 0 0 0 0 0 0 0 0 0 0 0 0 0 0 0 0 0 0 0 0 0 0 0 0 0 0 0 0
0 0 0 0 0 0 0 0 0 0 0 0 0 0 0 0 0 0 0 0 0 0 0 0 0 0 0 0 0 0 0 0 0 0 0 0 0 0 0 0 0 0 0 0 0 0 0 0 0
0 0 0 0 0 0 0 0 0 0 0 0 0 0 0 0 0 0 0 0 0 0 0 0 0 0 0 0 0 0 0 0 0 0 0 0 0 0 0 0 0 0 0 0 0 0 0 0 0
0 0 0 0 0 0 0 0 0 0 0 0 0 0 0 0 0 0 0 0 0 0 0 0 0 0 0 0 0 0 0 0 0 0 0 0 0 0 0 0 0 0 0 0 0 0 0 0 0
0 0 0 0 0 0 0 0 0 0 0 0 0 0 0 0 0 0 0 0 0 0 0 0 0 0 0 0 0 0 0 0 0 0 0 0 0 0 0 0 0 0 0 0 0 0 0 0 0
0 0 0 0 0 0 0 0 0 0 0 0 0 0 0 0 0 0 0 0 0 0 0 0 0 0 0 0 0 0 0 0 0 0 0 0 0 0 0 0 0 0 0 0 0 0 0 0 0
CIN
-0 -8 -229 -118 -0 -1 -13 -0 -0 -0 -0 -0 -0 -0 -32 -53 -74 -41 -74 -80 -104 -0 -0 -0 -99 -53 -142 -176 -180 -0 -0 -0 -0 -0 -0 -0 -0 -0 -0 -0 -0 -0 -3 -3 -0 -0 -0 -0 -0
-0 -203 -145 -0 -0 -7 -13 -0 -0 -0 -0 -0 -0 -0 -0 -0 -0 -70 -55 -123 -161 -0 -0 -0 -14 -23 -143 -0 -0 -0 -0 -0 -0 -0 -0 -0 -0 -0 -0 -0 -0 -0 -0 -3 -1 -0 -0 -0 -0
-0 -0 -0 -27 -29 -18 -7 -0 -0 -0 -0 -0 -0 -0 -0 -0 -91 -63 -65 -108 -128 -0 -0 -0 -0 -0 -0 -1 -0 -2 -4 -0 -0 -0 -0 -0 -0 -0 -0 -0 -0 -0 -0 -2 -3 -3 -0 -0 -0
-0 -0 -0 -31 -13 -13 -0 -0 -0 -0 -0 -0 -0 -0 -0 -0 -73 -73 -69 -83 -155 -9 -9 -0 -0 -0 -0 -0 -1 -1 -220 -0 -0 -0 -0 -0 -0 -0 -0 -0 -0 -0 -0 -0 -0 -4 -11 -0 -0
-0 -0 -0 -0 -25 -0 -0 -0 -0 -0 -0 -0 -0 -0 -0 -102 -73 -86 -77 -106 -209 -200 -17 -0 -0 -0 -0 -0 -0 -0 -268 -180 -0 -0 -0 -0 -0 -0 -0 -0 -0 -0 -0 -0 -0 -0 -4 -3 -0
-0 -0 -0 -0 -7 -0 -0 -0 -0 -0 -0 -0 -0 -0 -0 -77 -95 -88 -100 -154 -120 -119 -0 -0 -0 -0 -0 -0 -0 -0 -81 -0 -0 -0 -0 -0 -0 -0 -0 -0 -0 -0 -0 -0 -0 -0 -0 -0 -0
-0 -0 -0 -2 -6 -0 -0 -0 -0 -0 -0 -0 -0 -0 -0 -152 -102 -114 -117 -117 -178 -192 -132 -0 -0 -0 -0 -0 -0 -0 -0 -0 -0 -0 -0 -0 -0 -0 -0 -0 -0 -0 -0 -0 -0 -0 -0 -0 -0
-0 -0 -0 -0 -8 -0 -0 -0 -0 -0 -0 -0 -0 -0 -0 -0 -107 -115 -127 -119 -110 -119 -119 -152 -0 -0 -0 -0 -0 -0 -0 -0 -0 -0 -0 -0 -0 -0 -0 -0 -0 -0 -0 -0 -0 -0 -0 -0 -0
-0 -0 -0 -0 -3 -0 -0 -0 -0 -0 -0 -0 -0 -0 -0 -187 -117 -123 -112 -119 -111 -89 -73 -80 -147 -0 -0 -0 -0 -0 -0 -0 -0 -0 -0 -0 -0 -0 -0 -0 -0 -0 -0 -0 -0 -0 -0 -0 -0
-0 -0 -0 -0 -0 -0 -0 -0 -0 -0 -0 -0 -0 -0 -0 -239 -148 -113 -105 -122 -114 -104 -83 -96 -104 -136 -1 -0 -0 -0 -0 -0 -0 -0 -0 -0 -0 -0 -7 -0 -0 -0 -0 -0 -0 -0 -0 -0 -0
-0 -0 -0 -0 -0 -0 -0 -0 -0 -0 -0 -0 -0 -0 -0 -0 -165 -126 -116 -111 -129 -132 -132 -134 -150 -156 -0 -1 -0 -0 -0 -0 -0 -0 -0 -0 -0 -0 -0 -0 -0 -0 -0 -0 -0 -0 -0 -0 -0
-0 -0 -0 -0 -0 -0 -0 -0 -0 -0 -0 -0 -0 -0 -0 -214 -177 -152 -153 -151 -145 -149 -131 -154 -171 -132 -125 -0 -0 -0 -0 -0 -0 -0 -0 -0 -0 -0 -0 -0 -0 -0 -0 -0 -0 -0 -0 -0 -0
-0 -0 -0 -0 -0 -0 -0 -0 -0 -0 -0 -0 -0 -0 -0 -201 -179 -171 -187 -0 -0 -131 -141 -179 -0 -0 -165 -150 -0 -0 -0 -0 -0 -0 -0 -0 -0 -0 -0 -0 -0 -0 -0 -0 -0 -0 -0 -0 -0
-0 -0 -0 -0 -65 -0 -0 -0 -0 -0 -0 -0 -0 -0 -0 -52 -164 -170 -0 -0 -0 -0 -0 -153 -149 -171 -21 -0 -0 -0 -0 -0 -0 -0 -0 -0 -0 -0 -0 -0 -0 -0 -0 -0 -0 -0 -0 -0 -0
-0 -0 -0 -0 -0 -0 -0 -0 -0 -0 -0 -0 -0 -0 -0 -0 -0 -0 -0 -0 -163 -74 -0 -0 -156 -149 -147 -162 -9 -62 -0 -0 -0 -0 -0 -0 -0 -0 -0 -0 -0 -0 -0 -0 -0 -0 -0 -0 -0
-0 -0 -0 -0 -0 -0 -0 -0 -0 -0 -0 -0 -0 -0 -0 -0 -0 -0 -0 -0 -0 -0 -0 -0 -147 -158 -144 -149 -150 -142 -113 -103 -0 -0 -0 -0 -0 -0 -0 -0 -0 -9 -7 -5 -4 -2 -2 -3 -3
-2 -0 -0 -0 -0 -0 -0 -43 -0 -0 -0 -0 -0 -0 -0 -0 -0 -0 -0 -0 -0 -0 -0 -0 -179 -167 -106 -140 -113 -102 -84 -87 -91 -80 -0 -0 -31 -69 -65 -67 -61 -37 -25 -21 -10 -3 -4 -3 -3
-0 -0 -0 -0 -0 -0 -0 -0 -0 -0 -0 -0 -0 -0 -0 -0 -0 -0 -0 -0 -0 -0 -0 -0 -0 -0 -155 -139 -0 -0 -110 -102 -85 -77 -71 -3 -52 -45 -53 -67 -69 -53 -46 -41 -19 -3 -0 -4 -3
-0 -0 -0 -0 -0 -0 -0 -0 -0 -0 -0 -0 -0 -0 -0 -0 -0 -0 -0 -0 -0 -0 -0 -0 -0 -0 -0 -0 -0 -0 -0 -0 -102 -93 -71 -0 -0 -0 -0 -0 -0 -0 -0 -0 -0 -0 -0 -0 -0
-2 -0 -0 -0 -0 -0 -0 -0 -0 -0 -0 -0 -0 -0 -0 -0 -0 -0 -0 -0 -0 -0 -0 -0 -0 -0 -0 -0 -0 -0 -0 -0 -0 -0 -0 -0 -0 -0 -0 -0 -0 -0 -0 -0 -0 -0 -0 -1 -2
-0 -0 -0 -0 -0 -0 -0 -0 -0 -0 -0 -0 -0 -0 -0 -0 -0 -0 -0 -0 -0 -0 -0 -0 -0 -0 -0 -0 -0 -0 -0 -0 -0 -0 -0 -0 -0 -0 -0 -0 -0 -0 -0 -0 -0 -0 -2 -2 -5
-0 -0 -0 -0 -0 -0 -0 -0 -0 -0 -0 -0 -0 -0 -0 -0 -0 -0 -0 -0 -0 -0 -0 -0 -0 -0 -0 -0 -0 -0 -0 -0 -0 -0 -0 -0 -0 -0 -0 -0 -0 -0 -0 -0 -0 -0 -0 -1 -0
-0 -0 -0 -0 -0 -0 -0 -0 -0 -0 -0 -0 -0 -0 -0 -0 -0 -0 -0 -0 -0 -0 -0 -0 -0 -0 -0 -0 -0 -0 -0 -0 -0 -0 -0 -0 -0 -0 -0 -0 -0 -0 -0 -0 -0 -8 -9 -5 -0
-0 -0 -0 -0 -0 -0 -0 -0 -0 -0 -0 -0 -0 -0 -0 -0 -0 -0 -0 -0 -0 -0 -0 -0 -0 -0 -0 -0 -0 -0 -0 -0 -0 -0 -0 -0 -0 -0 -0 -0 -0 -0 -0 -0 -0 -0 -0 -0 -2
-0 -0 -0 -0 -0 -0 -0 -0 -0 -0 -0 -0 -0 -0 -0 -0 -0 -0 -0 -0 -0 -0 -0 -0 -0 -0 -0 -0 -0 -0 -0 -0 -0 -0 -0 -0 -0 -0 -0 -0 -0 -0 -0 -0 -0 -0 -0 -0 -0
-0 -0 -0 -0 -0 -0 -0 -0 -0 -0 -0 -0 -0 -0 -0 -0 -0 -0 -0 -0 -0 -0 -0 -0 -0 -0 -0 -0 -0 -0 -0 -0 -0 -0 -0 -0 -0 -0 -0 -0 -0 -0 -0 -0 -0 -0 -0 -0 -0
-0 -0 -0 -0 -0 -0 -0 -0 -0 -0 -0 -0 -0 -0 -0 -0 -0 -0 -0 -0 -0 -0 -0 -0 -0 -0 -0 -0 -0 -0 -0 -0 -0 -0 -0 -0 -0 -0 -0 -0 -0 -0 -0 -0 -0 -0 -0 -0 -0
-0 -0 -0 -0 -0 -0 -0 -0 -0 -0 -0 -0 -0 -0 -0 -0 -0 -0 -0 -0 -0 -0 -0 -0 -0 -0 -0 -0 -0 -0 -0 -0 -0 -0 -0 -0 -0 -0 -0 -0 -0 -0 -0 -0 -0 -0 -0 -0 -0
-0 -0 -0 -0 -0 -0 -0 -0 -0 -0 -0 -0 -0 -0 -0 -0 -0 -0 -0 -0 -0 -0 -0 -0 -0 -0 -0 -0 -0 -0 -0 -0 -0 -0 -0 -0 -0 -0 -0 -0 -0 -0 -0 -0 -0 -0 -0 -0 -0
-0 -0 -0 -0 -0 -0 -0 -0 -0 -0 -0 -0 -0 -0 -0 -0 -0 -0 -0 -0 -0 -0 -0 -0 -0 -0 -0 -0 -0 -0 -0 -0 -0 -0 -0 -0 -0 -0 -0 -0 -0 -0 -0 -0 -0 -0 -0 -0 -0
Wind_Speed
17 17 23 17 15 18 17 12 9 9 8 11 8 10 11 11 11 15 23 16 17 16 16 14 14 13 15 15 15 14 12 11 11 9 8 8 8 11 17 17 16 18 21 22 22 22 22 22 22
20 20 20 19 19 18 16 8 8 9 9 7 9 12 12 11 12 16 19 21 20 18 17 14 12 11 12 15 16 17 14 11 8 8 9 10 11 14 15 15 16 17 19 19 19 20 21 21 21
20 24 20 19 22 17 16 9 7 8 9 9 9 12 12 10 15 18 22 23 21 21 20 17 13 9 7 12 15 17 17 15 11 10 10 11 13 15 15 15 17 17 17 18 17 18 19 19 20
19 19 23 22 24 11 10 5 6 8 9 10 10 10 10 15 17 15 23 23 17 17 18 21 19 13 8 7 11 13 15 15 14 13 13 13 14 14 14 15 16 16 16 17 16 15 17 17 17
22 22 25 26 23 14 11 6 7 8 9 9 9 10 10 9 13 18 20 18 16 17 18 20 21 21 18 10 9 10 10 11 12 13 13 13 14 14 14 14 15 15 16 16 15 16 16 15 14
22 23 25 27 23 13 10 6 6 7 9 9 10 10 10 12 15 18 19 16 15 17 18 19 20 21 20 18 15 13 12 10 11 11 12 12 13 14 14 13 14 14 14 13 13 12 11 11 11
25 30 29 28 18 13 12 4 5 7 8 9 9 10 10 15 15 17 17 15 15 16 17 17 17 17 17 16 15 14 13 12 12 12 12 12 12 12 12 12 12 12 12 12 11 11 11 11 10
26 27 33 33 16 16 10 7 7 7 9 9 12 12 8 14 17 18 18 15 15 16 16 15 14 13 13 12 11 11 11 11 11 11 11 11 10 10 11 10 10 10 10 10 9 9 9 9 9
24 28 31 34 19 12 7 8 11 10 6 9 10 12 13 17 18 18 17 16 15 15 16 15 14 14 14 13 11 9 9 9 9 9 10 10 10 8 8 8 8 7 7 7 7 7 7 8 8
26 33 33 28 28 13 7 8 8 9 5 7 8 9 13 16 17 15 14 14 15 15 15 13 12 12 11 11 11 10 9 8 8 9 9 8 8 7 7 8 5 6 5 5 6 6 7 8 9
26 31 30 24 18 13 7 9 7 7 9 4 4 7 11 13 14 13 12 12 12 13 13 13 12 10 10 9 10 10 9 9 8 7 7 7 7 6 12 13 10 8 6 6 7 7 8 8 8
29 28 25 24 21 17 10 10 10 13 11 4 6 8 10 11 10 11 11 10 11 11 11 11 10 9 8 8 8 8 8 8 8 7 6 7 10 12 12 11 9 9 11 11 10 11 10 10 10
32 23 24 22 21 21 13 13 13 11 8 6 5 6 8 8 7 7 9 9 9 9 9 9 9 8 7 6 8 7 8 7 8 7 6 5 7 9 11 11 13 14 14 13 14 15 15 15 15
24 23 20 20 18 18 13 11 16 10 7 5 1 2 3 4 5 5 5 5 7 7 6 7 7 6 6 5 5 8 9 9 8 8 7 6 7 9 10 11 12 13 14 14 15 15 16 16 16
25 21 20 20 17 19 17 18 17 9 6 6 6 3 2 2 1 2 2 3 4 4 5 4 4 4 4 4 5 6 9 9 10 9 8 8 7 8 10 12 13 14 15 15 16 19 21 21 21
22 22 22 17 17 20 20 23 19 11 9 9 10 7 5 5 4 4 3 4 4 3 2 2 4 4 5 5 6 7 9 10 11 12 12 11 10 12 13 15 17 19 20 20 20 21 23 23 23
27 24 22 19 18 17 21 20 14 14 14 16 12 9 8 8 8 8 7 8 7 5 6 5 5 7 9 11 10 12 12 11 13 14 14 14 14 15 16 18 19 21 22 22 23 25 26 28 29
31 24 19 20 21 20 22 20 19 17 16 18 16 15 11 12 12 11 11 10 10 11 13 14 11 9 11 14 16 18 20 19 19 20 18 18 18 17 17 18 21 24 26 28 29 29 28 28 31
31 25 23 17 19 21 23 24 17 15 16 19 21 19 17 15 15 16 16 14 15 16 19 21 20 20 19 18 20 23 24 25 24 22 22 23 23 24 24 25 25 26 27 29 31 32 32 31 31
23 29 27 25 22 22 27 30 28 27 21 22 24 23 22 20 21 20 21 20 20 21 23 25 22 23 24 23 22 23 25 25 26 26 23 24 25 25 25 25 26 28 30 31 32 32 34 32 30
19 24 25 27 22 24 27 36 35 31 27 26 26 26 28 28 27 27 26 26 27 27 28 29 29 26 25 27 25 25 26 27 28 27 26 26 25 26 27 27 27 29 29 31 30 29 29 31 29
25 21 20 22 24 28 24 36 35 37 28 25 29 29 30 26 23 25 27 28 28 29 29 30 29 27 26 26 26 26 27 28 26 26 26 27 27 27 27 28 28 29 30 31 30 29 28 29 31
25 19 23 21 23 27 25 28 31 27 23 25 27 26 23 22 24 25 26 27 26 27 27 27 26 26 26 26 25 25 27 26 27 27 28 28 27 26 26 27 29 30 30 30 30 30 30 29 31
15 13 16 21 25 35 31 31 31 29 26 25 22 20 21 21 21 21 20 21 23 23 24 24 24 23 24 24 24 24 25 27 28 28 29 29 27 26 27 27 28 28 29 29 29 29 29 30 31
22 24 29 31 32 35 24 31 35 22 21 19 19 19 18 17 17 16 17 19 21 23 23 23 24 24 23 24 24 25 26 27 29 30 30 30 30 30 28 27 27 29 29 29 29 30 31 32 32
26 26 32 36 35 34 27 35 31 25 23 16 14 16 16 15 13 14 16 18 20 22 23 24 25 25 25 25 25 25 25 27 28 29 30 30 30 30 30 30 30 30 30 30 30 32 33 33 33
28 33 24 27 27 31 30 29 27 23 20 17 17 17 15 13 12 14 17 20 21 23 25 26 27 27 27 26 26 27 27 28 29 29 30 30 31 31 30 31 32 32 33 33 33 34 35 36 36
22 19 30 30 39 41 36 34 33 24 24 20 17 17 14 11 11 13 18 22 24 25 26 27 27 28 28 28 28 29 30 30 31 31 32 33 33 33 34 34 34 34 34 34 35 37 37 39 39
23 27 25 25 29 35 38 33 23 24 26 19 16 14 13 12 13 15 19 25 25 26 27 27 28 29 29 30 30 31 32 32 32 33 33 33 34 35 35 35 36 36 36 37 38 38 39 40 41
20 21 23 32 33 30 30 34 22 22 20 13 14 15 14 14 15 18 25 29 26 25 28 28 29 30 31 31 31 32 32 32 33 35 35 35 36 36 36 37 38 39 39 39 40 42 41 42 43
Wind_Direction
252 232 195 237 261 247 242 313 8 315 335 261 313 283 0 324 288 70 105 83 83 76 77 74 71 65 68 66 62 50 40 27 21 0 324 292 296 343 29 28 16 23 66 60 58 57 45 36 32
238 231 235 245 256 272 278 357 334 21 18 328 313 265 277 317 349 67 92 97 89 82 84 71 67 63 59 71 73 71 55 28 346 306 292 295 335 15 25 13 14 35 41 47 58 50 41 37 38
242 226 246 255 249 276 285 319 22 5 19 21 325 281 281 321 62 86 105 105 93 94 91 83 72 48 33 61 71 79 78 60 21 336 324 342 18 32 34 34 40 37 27 7 49 54 62 59 63
247 249 243 247 247 299 321 351 19 18 320 295 348 358 317 219 91 79 110 107 83 80 86 101 97 77 48 36 58 69 72 67 46 29 21 27 32 30 42 47 40 40 35 18 35 91 74 72 72
250 246 243 244 253 284 295 15 37 30 13 21 336 353 354 340 46 91 103 96 83 88 92 104 110 114 102 68 50 61 60 52 38 36 40 38 36 35 46 40 43 35 30 30 57 55 62 66 78
250 249 247 245 255 281 293 352 41 4 19 11 343 9 11 65 83 98 103 88 85 94 99 103 109 114 115 111 94 85 80 56 37 35 38 42 41 43 46 39 34 36 43 67 79 83 83 83 76
250 243 244 245 264 277 278 339 357 1 18 8 30 24 33 90 94 99 102 88 86 96 98 100 98 100 99 96 90 83 84 74 64 55 58 58 59 47 39 38 48 61 66 75 88 80 71 67 65
254 253 244 242 263 272 278 290 309 343 330 5 304 326 39 95 102 104 102 90 91 98 98 93 87 79 75 70 70 71 77 86 76 57 47 36 40 42 43 57 76 83 79 77 74 67 64 59 50
259 249 245 242 263 270 272 272 284 315 358 337 331 341 81 101 104 104 102 98 95 95 101 98 95 92 91 80 71 48 16 26 35 35 28 22 23 68 74 85 103 110 82 68 61 57 49 36 26
251 245 244 255 257 261 259 270 285 296 339 341 348 19 79 98 108 104 100 101 100 99 105 96 87 85 78 59 63 69 70 53 25 20 24 43 47 87 54 31 97 48 44 36 29 20 14 7 4
255 248 250 260 266 265 252 266 287 292 294 335 29 77 88 101 104 102 98 98 96 96 101 100 91 77 66 55 51 63 80 75 87 86 75 52 49 50 354 352 3 14 13 5 1 357 355 352 354
250 248 253 256 260 262 253 264 271 274 290 2 86 95 99 104 103 104 99 90 97 92 96 99 94 84 70 45 48 61 62 56 44 41 39 25 3 353 353 357 2 359 356 354 353 350 345 344 343
250 254 255 260 259 257 253 263 262 274 298 349 68 95 103 102 95 91 99 95 88 91 93 99 100 90 72 46 23 37 25 27 18 23 29 23 7 357 352 349 345 343 342 342 340 339 337 335 334
253 250 250 257 255 257 252 260 264 272 294 306 358 101 101 99 97 85 89 74 89 78 66 84 94 95 76 48 24 359 356 354 359 357 359 356 350 345 344 343 341 338 336 334 333 331 330 328 327
252 244 248 252 251 256 257 259 258 261 281 278 277 274 280 302 54 42 38 15 66 62 55 70 72 79 81 48 20 0 347 345 341 341 340 337 334 333 333 335 334 333 332 329 328 327 325 323 322
247 243 238 251 253 259 253 254 252 266 267 271 270 272 275 286 302 327 353 342 344 24 67 29 0 352 347 345 344 340 338 335 332 331 330 326 323 325 326 326 327 328 328 326 323 322 322 319 318
238 242 239 249 264 257 253 261 249 265 268 265 270 273 278 290 301 310 318 318 327 331 332 332 329 324 321 322 324 326 327 325 325 325 323 322 321 321 320 322 324 325 324 322 320 318 317 316 315
236 242 244 249 260 262 250 258 261 264 265 267 269 275 284 293 300 307 309 312 316 315 318 320 321 313 314 316 315 315 315 315 316 317 317 317 318 318 317 319 320 321 321 320 319 316 315 313 314
242 246 246 263 270 256 253 256 263 267 267 267 270 277 282 291 298 301 308 314 312 315 312 311 312 312 313 312 310 309 309 310 311 312 313 314 317 317 316 316 317 320 320 320 320 318 315 314 314
243 242 249 262 265 261 259 257 262 267 273 270 272 276 280 289 292 297 301 309 312 312 311 310 311 311 310 309 309 310 312 313 313 313 312 313 312 313 313 314 316 318 319 319 319 318 314 314 314
250 249 251 256 264 263 264 259 257 266 270 271 273 276 279 281 286 293 297 302 305 308 309 308 309 311 312 310 310 310 311 311 310 310 311 313 316 316 315 315 317 318 320 320 320 319 316 314 315
250 259 259 253 260 260 264 261 264 264 267 270 273 277 279 286 293 297 298 302 305 307 311 310 311 312 314 314 312 311 309 309 313 314 315 316 316 316 316 317 318 319 320 320 320 321 319 317 314
255 260 256 265 266 267 263 265 265 275 270 273 278 281 285 294 295 298 302 304 308 312 315 317 317 317 317 316 315 314 312 313 313 314 314 316 317 318 319 319 319 319 321 322 322 321 319 318 315
256 261 268 268 268 263 262 265 271 273 276 278 284 289 292 299 302 307 313 316 317 320 324 325 326 327 326 324 323 320 318 317 316 317 317 319 320 320 321 321 321 322 322 322 322 321 319 318 316
255 248 258 260 260 261 274 267 266 282 294 292 289 297 301 306 308 314 322 325 325 328 331 332 332 330 331 330 328 326 324 321 319 319 320 320 320 321 324 323 323 323 322 322 322 321 319 318 316
247 252 255 257 260 266 273 269 275 282 291 298 301 303 305 307 314 323 329 332 334 334 334 335 334 333 332 330 328 329 327 324 323 322 322 321 321 321 322 322 321 320 320 320 320 318 317 317 315
248 250 267 265 271 268 270 278 285 286 291 298 300 300 300 298 304 317 325 330 331 330 330 329 329 329 330 330 329 327 326 325 324 323 323 323 322 321 322 320 318 317 317 316 316 315 314 314 313
255 252 257 263 260 264 269 274 279 285 290 294 299 298 296 295 304 315 323 327 328 330 331 331 331 329 329 328 327 326 324 324 323 322 322 321 321 321 320 319 319 318 317 316 315 314 313 312 311
252 251 264 265 268 267 269 275 296 295 295 291 298 299 297 295 300 312 320 325 325 328 331 330 330 329 328 328 327 326 325 325 324 323 323 322 322 321 321 319 318 317 316 315 314 313 313 311 311
256 255 260 260 264 270 278 279 302 308 308 307 308 311 311 310 310 314 319 319 323 329 330 329 329 328 328 328 328 327 327 328 327 326 326 325 323 323 321 319 318 317 316 315 313 312 312 311 310